Location: Champs
(48.8539°N, 2.6040°E)
Time: 19:31:06
(UTC+00:00)

ATLAS CENTAUR R/B - Pass Details

Date: 30 May 2022
Orbit: 443 x 688 km, 64.6° (Epoch: 07 June)

Event Time Altitude Azimuth Distance (km) Brightness Sun altitude
Rises 22:29:04 0° 316° (NW) 3,057 6.3 -17.1°
Reaches altitude 10° 22:31:33 10° 308° (NW) 2,123 5.1 -17.3°
Maximum altitude 22:36:02 38° 242° (WSW) 1,007 2.5 -17.5°
Enters shadow 22:37:42 28° 199° (SSW) 1,211 2.6 -17.6°
